Location: Ferchesar
(52.6477°N, 12.4298°E)
Time: 17:34:43
(UTC+01:00)

Tiros 1 - Pass Details

Date: 12 December 2021
Orbit: 629 x 664 km, 48.4° (Epoch: 22 January)

Event Time Altitude Azimuth Distance (km) Brightness Sun altitude
Rises 18:08:29 0° 258° (WSW) 2,918 12.2 -18.8°
Reaches altitude 10° 18:10:50 10° 254° (WSW) 2,013 10.9 -19.2°
Maximum altitude 18:15:19 51° 178° (S) 801 7.6 -19.8°
Enters shadow 18:16:51 35° 126° (SE) 1,023 7.8 -20.1°
Drops below altitude 10° 18:19:50 10° 104° (ESE) 2,031 - -20.5°
Sets 18:22:13 0° 99° (E) 2,946 - -20.9°
